Flag for Ecuador Weather past 2 weeks in Guayaquil, Ecuador

Now
84 °F

Partly sunny.


Feels Like: 90 °F
Forecast: 78 / 89 °F
Wind: 6 mph from Northeast

Location: Guayaquil / Simon Bolivar


UV Index: 3 (Moderate)

Visibility: N/A


Pressure: 29.77 "Hg

Humidity: 66%

Dew point: 72 °F

Location of GuayaquilLocation

Historic Weather in Guayaquil

°F

Guayaquil temperature yesterday

Maximum temperature yesterday: 90 °F (at 1:00 PM)
Minimum temperature yesterday: 77 °F (at 2:00 AM)
Average temperature yesterday: 82 °F

Past Weeks' High & Low Weather Summary

 TemperatureHumidityPressure
High91 °F (Apr 6, 2:00 PM)89% (Apr 7, 7:00 AM)29.89 "Hg (Apr 7, 7:00 AM)
Low73 °F (Apr 10, 1:00 AM)49% (Apr 16, 11:00 AM)29.68 "Hg (Apr 13, 4:00 PM)
Average82 °F70%29.79 "Hg
* Reported Apr 4 12:00 Noon — Apr 19 12:00 Noon, Guayaquil, Weather by CustomWeather, © 2014

Note: Actual official high and low records may vary slightly from our data, if they occured in-between our weather recording intervals... More about our weather records

Advertising

Historic Weather Conditions — Data for Previous 24 hours

 ConditionsComfort  
Time TempWeatherWind HumidityBarometerVisibility
12:00 PM
Apr 19
86 °FBroken clouds.6 mph59%29.80 "HgN/A
11:00 AM84 °FBroken clouds.6 mph66%29.83 "HgN/A
10:00 AM81 °FBroken clouds.5 mph74%29.83 "HgN/A
9:00 AM79 °FBroken clouds.1 mph79%29.83 "HgN/A
8:00 AM77 °FBroken clouds.2 mph83%29.83 "HgN/A
7:00 AM77 °FPartly sunny.2 mph83%29.83 "HgN/A
6:00 AM77 °FPartly cloudy.3 mph83%29.83 "HgN/A
5:00 AM79 °FWarm.N/A70%29.83 "HgN/A
4:00 AM79 °FPassing clouds.2 mph70%29.80 "HgN/A
3:00 AM77 °FPassing clouds.3 mph79%29.80 "HgN/A
2:00 AM77 °FWarm.N/A79%29.83 "HgN/A
1:00 AM77 °FPassing clouds.5 mph79%29.83 "HgN/A
12:00 AM77 °FPassing clouds.7 mph79%29.83 "HgN/A
11:00 PM
Apr 18
79 °FPassing clouds.8 mph74%29.83 "HgN/A
10:00 PM81 °FPassing clouds.7 mph66%29.80 "HgN/A
9:00 PM81 °FPassing clouds.8 mph70%29.80 "HgN/A
8:00 PM81 °FPassing clouds.9 mph70%29.77 "HgN/A
7:00 PM82 °FPartly cloudy.9 mph66%29.74 "HgN/A
6:00 PM82 °FBroken clouds.8 mph70%29.74 "HgN/A
5:00 PM86 °FScattered showers. Partly sunny.9 mph62%29.71 "HgN/A
4:00 PM88 °FBroken clouds.5 mph62%29.68 "HgN/A
3:00 PM90 °FBroken clouds.6 mph55%29.71 "HgN/A
2:00 PM90 °FBroken clouds.6 mph52%29.71 "HgN/A
1:00 PM90 °FScattered clouds.3 mph52%29.74 "HgN/A
Weather by CustomWeather, © 2014

See weather overview